Regional Weather Roundup
Issued by NWS Wakefield, VA

Home | Current Version | Previous Version | Graphics & Text | Print | Product List | Glossary On
Versions: 1 2 3 4 5 6 7 8 9 10 11 12 13 14 15 16 17 18 19 20 21 22 23 24 25 26 27 28
000
ASUS41 KAKQ 210416
RWRAKQ

REGIONAL WEATHER ROUNDUP
NATIONAL WEATHER SERVICE WAKEFIELD VA
1200 AM EDT MON AUG 21 2017

Note: "fair" indicates few or no clouds below 12,000 feet with no
significant weather and/or obstructions to visibility. * = Denotes
station may not report precipitation (e.g., rain,snow,etc.),
thunder or fog.

VAZ042-051-052>054-056-210500-
NORTHERN VIRGINIA

CITY           SKY/WX    TMP DP  RH WIND       PRES   REMARKS
WASH NATIONAL  PTCLDY    77  70  79 SE5       30.19S
DULLES         PTCLDY    70  68  93 SE6       30.19R
FORT BELVOIR   PTCLDY    71  69  92 CALM      30.18S
QUANTICO       CLEAR     78  73  84 SE6       30.19R
FREDERICKSBRG* PTCLDY    74  72  93 CALM      30.18S
STAFFORD*      PTCLDY    69  69 100 CALM      30.23S
WARRENTON      MOCLDY    71  67  88 CALM      30.19S
CULPEPER*      MOCLDY    72  71  97 CALM      30.20R
MANASSAS*      CLOUDY    72  70  93 CALM      30.19R
LEESBURG*      CLEAR     72  70  94 CALM      30.20S
WINCHESTER     PTCLDY    68  64  88 CALM      30.19F
FRONT ROYAL*   PTCLDY    70  70 100 CALM      30.18S
LURAY*         CLEAR     72  72 100 CALM      30.20S
$$

VAZ048-049-060>072-079>083-210500-
CENTRAL AND SOUTH CENTRAL VIRGINIA

CITY           SKY/WX    TMP DP  RH WIND       PRES   REMARKS
RICHMOND       PTCLDY    74  70  87 CALM      30.19R
CHESTERFIELD*  FAIR      75  71  87 CALM      30.19S
PETERSBURG*    CLEAR     71  71 100 CALM      30.19S
HANOVER        CLEAR     71  68  90 CALM      30.20R
TAPPAHANNOCK*  CLEAR    N/A N/A N/A CALM      30.20R
QUINTON*       FAIR      72  72 100 CALM      30.19R
CHARLOTTSVILLE CLOUDY    76  71  85 N3        30.20R
GORDONSVILLE*  CLOUDY    72  71  98 CALM      30.19S
ORANGE*        PTCLDY    70  68  94 CALM      30.19S
LOUISA*        PTCLDY    73  68  83 CALM      30.19S
BUMPASS*       FAIR      74  71  91 CALM      30.19S
FARMVILLE*     CLEAR     76  69  78 CALM      30.17S
CREWE*         FAIR      72  68  87 CALM      30.19S
FORT PICKETT*  FAIR     N/A N/A N/A E5        30.19S
CHASE CITY*    FAIR      75  75  99 CALM      30.18S
CLARKSVILLE*   FAIR      73  73 100 E3        30.18S
SOUTH HILL*    CLEAR     74  74 100 CALM      30.24S
LAWRENCEVILLE* FAIR      75  73  93 CALM      30.18S
EMPORIA*         N/A     73  72  94 CALM      30.19S
$$

VAZ088>098-210500-
SOUTHEAST VIRGINIA

CITY           SKY/WX    TMP DP  RH WIND       PRES   REMARKS
NORFOLK        CLEAR     78  74  87 CALM      30.18R
VIRGINIA BEACH CLEAR     74  72  93 CALM      30.17S
NORFOLK NAVAL  CLEAR     78  73  84 CALM      30.19S
WEST POINT*    CLEAR     72  69  92 CALM      30.20S
SALUDA*        FAIR      72  72 100 CALM      30.19R
NEWPORT NEWS   CLEAR     73  72  96 CALM      30.18R
LANGLEY AFB    CLEAR     76  73  92 SE3       30.18R
FORT EUSTIS    CLEAR     77  72  85 CALM      30.16R
WILLIAMSBURG*  CLEAR     75  75 100 CALM      30.19S
HR EXEC AP*    FAIR      72  66  83 CALM      30.16S
FRANKLIN*      CLEAR     75  73  93 CALM      30.19S
US460-WAKEFLD  CLEAR     73  73 100 CALM      30.19R
$$

VAZ020-022-025-037-045-210500-
WEST CENTRAL AND SOUTHWEST VIRGINIA

CITY           SKY/WX    TMP DP  RH WIND       PRES   REMARKS
STAUNTON*      CLOUDY    70  67  89 CALM      30.23S
WAYNESBORO*    PTCLDY    75  68  79 S9        30.23S
HOT SPRINGS VA CLEAR     70  59  68 CALM      30.36S
LYNCHBURG      CLEAR     71  67  87 CALM      30.21R
DANVILLE       CLEAR     73  72  96 CALM      30.18S
SOUTH BOSTON*  FAIR      73  72  96 CALM      30.17S
MARTINSVILLE   CLEAR     70  69  96 CALM      30.22S
ROANOKE        PTCLDY    74  67  78 CALM      30.23S
BLACKSBURG     PTCLDY    70  67  88 CALM      30.29S
DUBLIN*        PTCLDY    71  66  85 CALM      30.27S
MARION*        CLOUDY    72  55  54 CALM      30.30S
HILLSVILLE*    CLOUDY    71  63  76 CALM      30.28S
RICHLANDS*     FAIR      74  58  57 CALM      30.27F
WISE*          PTCLDY    72  63  73 CALM      30.28S
ABINGDON*      CLEAR     73  69  88 CALM      30.24S
$$

MDZ021>025-VAZ099-100-210500-
SOUTHERN MARYLAND AND THE DELMARVA PENINSULA

CITY           SKY/WX    TMP DP  RH WIND       PRES   REMARKS
PATUXENT RIVER CLEAR     69  68  96 CALM      30.19R
BAY BRIDGE APT CLEAR     72  66  83 S3        30.19S
LEONARDTOWN    CLEAR     68  66  94 CALM      30.21R
DOVER          CLEAR     70  70 100 CALM      30.17S
GEORGETOWN     CLEAR     68  66  93 CALM      30.20R
EASTON         CLEAR    N/A N/A N/A CALM      30.24R
CAMBRIDGE      PTCLDY    68  66  94 CALM      30.19R
SALISBURY      CLEAR     69  67  93 CALM      30.20R
OCEAN CITY     CLEAR     69  69 100 CALM      30.20R
WALLOPS ISLAND CLEAR     74  73  97 SW5       30.20R
ACCOMACK*      CLEAR     70  69  98 CALM      30.19R FOG
$$

NCZ012>017-030>032-210500-
NORTH CENTRAL AND EASTERN NORTH CAROLINA

CITY           SKY/WX    TMP DP  RH WIND       PRES   REMARKS
ROANOKE RAPIDS FAIR      73  73 100 CALM      30.17S
RALEIGH        PTCLDY    81  71  71 S6        30.18S
ELIZABETH CITY CLEAR     75  75 100 CALM      30.18S
AHOSKIE*         N/A     74  74  98 CALM      30.18S
EDENTON*       CLEAR     80  76  89 CALM      30.18S
CURRITUCK*     CLEAR     75  72  91 CALM      30.19S
KILL DEVIL HLS CLEAR     76  74  92 CALM      30.17R
MANTEO         CLEAR     75  74  96 CALM      30.18S
CAPE HATTERAS  MOCLDY    77  77 100 CALM      30.16F
TARBORO*       NOT AVBL
GOLDSBORO      NOT AVBL
WASHINGTON     CLOUDY    76  74  92 CALM      30.17S
GREENVILLE     CLOUDY    77  73  88 CALM      30.18S
NEW BERN       PTCLDY    75  75 100 CALM      30.18S
WILMINGTON     MOCLDY    77  76  96 N3        30.15S
$$

VAZ048-210500-
ELSEWHERE

CITY           SKY/WX    TMP DP  RH WIND       PRES   REMARKS
HARRISBURG PA  PTCLDY    71  66  84 N3        30.18R
BALTIMORE      PTCLDY    70  67  90 CALM      30.18F
ANNAPOLIS      CLEAR     75  74  96 CALM      30.18S
ANDREWS AFB    PTCLDY    70  66  85 CALM      30.18S
PHILADELPHIA   PTCLDY    75  66  73 SW3       30.18S
HENDERSON NC   CLEAR     76  68  77 SE3       30.19R
GREENSBORO     PTCLDY    79  69  71 SE6       30.17F
ROCKY MOUNT    CLEAR     74  73  97 CALM      30.17S
$$

VAZ100-210500-
MARINE

STATION/POSITION TIME  TEMP    WIND        PRES    WAVE   SWELL
                       AIR SEA DIR/SP/G            HT/PER HT/PER
                 (UTC) (F)     (DEG/KT/KT) (MB)    (FT/S) (FT/S)
BRANDYWINE LGT   0342   76     250/  7/  8 1022.5S
CAPE MAY NJ      0348   75 79  210/  3/  5 1021.7R
LEWES DE         0342   73 80  220/  4/  5 1022.1R
15NM E FENWICK I 0350   78 78  210/  6/  8 1022.9R   2/ 9   2/ 9
OCEAN-CITY-INLET 0348   76 78  240/  4/  6 1022.8R
WACHAPREAGUE VA  0348   76 84  270/  2/  2 1022.3R
THOMAS POINT MD  0400   80 81  150/  5/  6   N/A
GOOSES REEF MD   0400   81 80  170/  6/  8 1022.9
COVE POINT MD    0348   78     220/  1/  2 1023.0R
SOLOMONS ISLAND  0342   77 82  190/  1/  2   N/A
BISHOPS HEAD MD  0348   81 84  130/  2/  3 1022.4R
PINEY POINT MD   0348          200/  6/  7   N/A
POTOMAC MD       0400   81 82  170/  6/  8 1021.7    0
CAMBRIDGE MD     0348   73 83              1023.2R
LEWISETTA VA     0348   77 84  220/  3/  3 1022.3R
RAPPAHANNOCK LGT 0348          160/  3/  4 1022.9R
STINGRAY PT      0400   80 82  200/  6/  6 1022.5    1
YORK RVR RNG VA  0348   80     160/  8/  9 1022.4R
YORKTOWN VA      0348   79 83  140/  5/  6 1021.8R
JAMESTOWN VA     0400      85  160/  4/  8   N/A     0
DOMINION TERM VA 0348   80     150/  5/  7 1022.0R
KIPTOPEKE VA     0348      81  130/  2/  3   N/A
CHES BAY BRIDGE  0348   79 77  180/  6/  7 1021.9R
CAPE HENRY VA    0348   77     160/  5/  6   N/A
WILLOUBY STN VA  0342   79     170/  6/  8 1021.9R
S CRANEY ISL VA  0348   80     160/  5/  8 1021.8R
CAPE HENRY BUOY  0330      81                N/A     2/ 8
1ST LANDING BUOY 0400   78 79              1021.9    1
64NM E OF VA BCH 0350   78 79  130/  6/  8 1022.1F   2/ 8   2/ 8
DUCK PIER NC     0348   79 80  100/  7/  7 1021.5R
44100 DUCK FRF   0305      81                N/A     2/ 9
44056 DUCK FRF   0330      79                N/A     2/ 9
OREGON INLET NC  0342   77 81   50/  3/  4 1021.6F
HATTERAS NC      0348   79 80   90/  2/  3 1021.4S
DIAMOND SHLS NC  0350   83 85  160/  2/  2 1021.2S   2/ 8   2/ 8
CAPE LOOKOUT NC  0400   81      70/  3/  3 1020.8S
$$




USA.gov is the U.S. government's official web portal to all federal, state and local government web resources and services.